Flag for Brazil Weather past 2 weeks in Porto Alegre, Rio Grande do Sul, Brazil

Now
70 °F

Clear.


Feels Like: 70 °F
Forecast: 68 / 76 °F
Wind: 13 mph from Southeast

Location: Porto Alegre Aero-Porto

Current Time: Mar 29, 2015 at 4:46:44 AM

Latest Report: Mar 29, 2015 at 4:00 AM


Visibility: 10 mi

Pressure: 30.01 "Hg

Humidity: 83%

Dew point: 64 °F

Location of Porto AlegreLocation

Historic Weather in Porto Alegre — Graph

°F

Porto Alegre temperature yesterday

Maximum temperature yesterday: 79 °F (at 11:00 AM)
Minimum temperature yesterday: 59 °F (at 4:00 AM)
Average temperature yesterday: 70 °F

Past Weeks' High & Low Weather Summary

 TemperatureHumidityPressure
High90 °F (Mar 14, 1:00 PM)100% (Mar 14, 4:00 AM)30.15 "Hg (Mar 14, 4:00 AM)
Low59 °F (Mar 28, 4:00 AM)40% (Mar 19, 3:00 PM)29.77 "Hg (Mar 20, 5:00 PM)
Average74 °F75%29.99 "Hg
* Reported Mar 14 4:00 AM — Mar 29 4:00 AM, Porto Alegre, Weather by CustomWeather, © 2015

Note: Actual official high and low records may vary slightly from our data, if they occured in-between our weather recording intervals... More about our weather records

Advertising

Porto Alegre weather history for previous 24 hours

 ConditionsComfort  
Time TempWeatherWind HumidityBarometerVisibility
4:00 AM
Sun, Mar 29
70 °FClear.13 mph83%30.01 "Hg10 mi
3:00 AM70 °FClear.12 mph83%30.04 "Hg10 mi
2:00 AM68 °FPassing clouds.9 mph88%30.04 "HgN/A
1:00 AM68 °FClear.12 mph88%30.07 "Hg10 mi
12:00 AM70 °FClear.15 mph83%30.07 "Hg10 mi
11:00 PM
Sat, Mar 28
70 °FClear.13 mph83%30.07 "Hg10 mi
10:00 PM70 °FPartly cloudy.14 mph83%30.09 "HgN/A
9:00 PM70 °FPassing clouds.18 mph83%30.07 "HgN/A
8:00 PM70 °FPassing clouds.15 mph83%30.09 "HgN/A
7:00 PM70 °FPassing clouds.16 mph83%30.09 "HgN/A
6:00 PM72 °FPassing clouds.18 mph78%30.07 "HgN/A
5:00 PM73 °FScattered clouds.17 mph74%30.07 "HgN/A
4:00 PM75 °FPartly sunny.16 mph69%30.07 "HgN/A
3:00 PM79 °FPartly sunny.14 mph61%30.07 "HgN/A
2:00 PM79 °FPartly sunny.15 mph61%30.07 "HgN/A
1:00 PM79 °FPartly sunny.10 mph58%30.09 "HgN/A
12:00 PM79 °FPartly sunny.13 mph58%30.12 "HgN/A
11:00 AM79 °FPartly sunny.14 mph58%30.12 "HgN/A
10:00 AM75 °FScattered clouds.9 mph69%30.12 "HgN/A
9:00 AM68 °FClear.3 mph83%30.12 "Hg6 mi
8:00 AM63 °FClear.3 mph94%30.12 "Hg4 mi
7:00 AM63 °FClear.3 mph94%30.12 "Hg4 mi
6:00 AM61 °FPassing clouds.1 mph94%30.09 "Hg4 mi
5:00 AM61 °FClear.2 mph94%30.09 "Hg4 mi
4:00 AM59 °FClear.2 mph94%30.09 "Hg10 mi
Weather by CustomWeather, © 2015

See weather overviewHow to use our weather pages